Location: Holbach
(51.5399°N, 10.6036°E)
Time: 18:11:19
(UTC+00:00)

Cosmos 2279 Rocket - Pass Details

Date: 18 September 2020
Orbit: 964 x 979 km, 82.9° (Epoch: 21 October)

Event Time Altitude Azimuth Distance (km) Brightness Sun altitude
Exits shadow 20:20:51 63° 142° (SE) 1,087 3.9 -26.0°
Maximum altitude 20:21:40 71° 96° (E) 1,035 3.9 -26.1°
Drops below altitude 10° 20:27:55 10° 13° (NNE) 2,744 6.7 -26.8°
Sets 20:30:27 0° 12° (NNE) 3,696 7.4 -27.1°
